Regional Weather Roundup
Issued by NWS

Home | Current Version | Previous Version | Graphics & Text | Print | Product List | Glossary Off
Versions: 1 2 3 4 5 6 7 8 9 10 11 12 13 14 15 16 17 18 19 20 21 22 23 24 25 26 27 28 29 30 31 32 33 34 35 36 37 38 39 40 41 42 43 44 45 46 47 48 49 50

000
ASUS43 KMKX 050921
RWRWI

WISCONSIN REGIONAL WEATHER ROUNDUP
NATIONAL WEATHER SERVICE MILWAUKEE/SULLIVAN WI
400 AM CDT SAT SEP 05 2015

NOTE: "FAIR" INDICATES FEW OR NO CLOUDS BELOW 12,000 FEET WITH NO
SIGNIFICANT WEATHER AND/OR OBSTRUCTIONS TO VISIBILITY.

WIZ001-002-006>008-014>016-023>028-051000-
NORTHWEST WISCONSIN

CITY           SKY/WX    TMP DP  RH WIND       PRES   REMARKS
SUPERIOR ARPT  MOCLDY    59  58  94 NE7       30.00R
ASHLAND        PTCLDY    67  67 100 SW5       30.00R
HAYWARD        CLEAR     69  65  86 CALM      30.01F
SIREN          MOCLDY    72  69  91 SE8       29.97S
CUMBERLAND     MOCLDY    66  64  94 SE6       30.01R
RICE LAKE      PTCLDY    69  65  88 SE8       30.02S
CHETEK         PTCLDY    68  67  94 SE5       30.02S
LADYSMITH      CLEAR     68  65  92 SE5       30.05S
EAU CLAIRE     CLOUDY    71  67  87 SE5       29.99F
MENOMONIE      MOCLDY    72  71  96 E3        29.99S FOG
NEW RICHMOND   PTCLDY    72  71  96 SE3       29.98R
OSCEOLA        PTCLDY    73  73 100 SE7       29.99S
$$

WIZ003>005-009-010-017-018-051000-
NORTH CENTRAL WISCONSIN

CITY           SKY/WX    TMP DP  RH WIND       PRES   REMARKS
MANITOWISH WTR PTCLDY    65  65 100 SE5       30.06S
ARBOR VITAE    CLEAR     65  64  94 S6        30.07F
WOODRUFF       CLEAR     65  64  94 S6        30.07F
RHINELANDER    CLOUDY    65  64  97 S3        30.09S FOG
EAGLE RIVER    CLOUDY    65  65 100 S3        30.08F FOG
LAND O LAKES   CLOUDY    65  65  97 CALM      30.09F FOG
PHILLIPS       MOCLDY    66  66  99 SE6       30.04F FOG
TOMAHAWK       CLOUDY    65  64  95 SE3       30.08S FOG
MEDFORD        CLOUDY    65  65 100 SE5       30.07R FOG
MERRILL        CLOUDY    67  67 100 E3        30.07F FOG
$$

WIZ029-030-035-036-043>047-051000-
CENTRAL WISCONSIN

CITY           SKY/WX    TMP DP  RH WIND       PRES   REMARKS
WAUSAU         CLOUDY    67  65  93 E5        30.05F FOG
MOSINEE        CLOUDY    64  64 100 SE5       30.08R FOG
MARSHFIELD     CLOUDY    67  63  87 SE5       30.06S FOG
STEVENS POINT  PTCLDY    64  64  99 CALM      30.07R FOG
WAUPACA        MOCLDY    67  67  98 CALM      30.07R FOG
WAUTOMA        PTCLDY    65  65 100 CALM      30.07R FOG
WISC RAPIDS    MOCLDY    67  63  87 CALM      30.07R
CAMP DOUGLAS   CLOUDY    67  67 100 CALM      30.04S
$$

WIZ011>013-019>022-031-037>040-048>050-051000-
NORTHEAST WISCONSIN

CITY           SKY/WX    TMP DP  RH WIND       PRES   REMARKS
ANTIGO         FOG       63  63 100 CALM      30.09S VSB 1
SHAWANO        NOT AVBL
OCONTO         CLOUDY    57  57 100 CALM      30.06S
STURGEON BAY   CLOUDY    64  63  94 CALM      30.09S VSB 1/4
GREEN BAY      FOG       61  60  97 CALM      30.08R VSB 1/2
MANITOWOC      FOG       63  63 100 MISG      30.08R VSB 1
APPLETON       CLOUDY    66  64  94 CALM      30.06R FOG
CLINTONVILLE   MOCLDY    63  63 100 CALM      30.07S FOG
OSHKOSH        CLOUDY    66  64  93 NE3       30.06R
$$

WIZ032>034-041-042-053>061-051000-
SOUTHWEST WISCONSIN

CITY           SKY/WX    TMP DP  RH WIND       PRES   REMARKS
LA CROSSE      CLOUDY    74  72  93 SE7       30.00S
SPARTA         MOCLDY    69  67  92 CALM      30.04S
VIROQUA        CLOUDY    72  72 100 SE3       30.06S
BOSCOBEL       LGT RAIN  73  71  93 CALM      30.04R FOG
PRAIRIE DU CHI CLOUDY    73  71  93 CALM      30.02R FOG
PLATTEVILLE    CLOUDY    72  71  98 CALM      30.05S
$$

WIZ056-057-062-063-064-067-068-051000-
SOUTH CENTRAL WISCONSIN

CITY           SKY/WX    TMP DP  RH WIND       PRES   REMARKS
REEDSBURG      MOCLDY    68  67  96 CALM      30.06R
BARABOO/DELLS  MOCLDY    67  65  91 CALM      30.06R FOG
LONE ROCK      MOCLDY    70  68  93 CALM      30.05R
MINERAL POINT  CLOUDY    72  70  94 SE3       30.06S FOG
MADISON        PTCLDY    68  64  87 SE3       30.05S
MIDDLETON      PTCLDY    69  68  97 SE6       30.06R
WATERTOWN      CLOUDY    65  65 100 CALM      30.06R FOG
MONROE         MOCLDY    68  64  88 S6        30.05S FOG
JANESVILLE     CLEAR     68  64  88 NE3       30.05R FOG
$$

WIZ051-052-058>065-066-070>072-051000-
SOUTHEAST WISCONSIN

CITY           SKY/WX    TMP DP  RH WIND       PRES   REMARKS
MILWAUKEE      FOG       66  65  96 CALM      30.06R VSB 1/2
WAUKESHA         N/A     63  63 100 CALM      30.08R FOG
MILWAUKEE/TIMM PTCLDY    64  63  94 CALM      30.07R FOG
RACINE         MOCLDY    67  64  90 SE5       30.08R
BURLINGTON     CLEAR     63  63  99 CALM      30.06S FOG
KENOSHA        PTCLDY    65  64  97 CALM      30.07R FOG
FOND DU LAC    CLOUDY    66  64  93 CALM      30.07R
SHEBOYGAN      FOG       64  64 100 CALM      30.07R VSB 1/2
WEST BEND      PTCLDY    63  61  94 CALM      30.07R FOG
JUNEAU         MOCLDY    64  64  97 CALM      30.07S FOG
$$

LSZ147-162-051000-
LAKE SUPERIOR

STATION/POSITION TIME  TEMP    WIND        PRES    WAVE
                       AIR SEA DIR/SP/G            HT/PER
                 (UTC) (F)     (DEG/KT/KT) (MB)    (FT/S)
W MID LAKE BUOY  0850   62 57  120/  6/  6 1015.7F   1/ 4
DEVILS ISLAND    0900   62      20/ 14/ 16 1016.1R
PORT WING        0800   53      50/  4/  8 1015.6
SAXON HARBOR     0840   73     190/  6/ 11 1014.6F
$$

LMZ867-665-643>646-051000-
LAKE MICHIGAN

STATION/POSITION TIME  TEMP    WIND        PRES    WAVE
                       AIR SEA DIR/SP/G            HT/PER
                 (UTC) (F)     (DEG/KT/KT) (MB)    (FT/S)
CHAMBERS ISLAND  0800   65     260/  1/  2 1017.9S
S GREEN BAY BUOY 0900   66 67   40/  4/  6 1019.4R
N MID LAKE BUOY  0850   68 67  180/  8/  8 1017.3R   1
NORTHPORT PIER   0800   67     330/  2/  3 1017.6S
SISTER BAY       0811   65        CALM       N/A
ALGOMA LAKESHORE 0844             CALM       N/A
KEWAUNEE LAKESHO 0900   60        CALM     1017.2R
SHEBOYGAN LAKESH 0900   59     350/  1/  2 1018.7R
PORT WASHINGTON  0800   61      CALM  /  2 1018.6S
ATWATER BUOY     0900   61 58   50/  4/  4 1019.3R
MILWAUKEE LAKESH 0910   60      40/  7/  7   N/A
S MID LAKE BUOY  0850   69 71   80/  4/  4 1017.6R
KENOSHA   LAKESH 0900   64      CALM  /  2 1017.9R
$$

TC  - TEMPERATURE IN CELSIUS
VSB - VISIBILITY IN STATUTE MILES
WCI - WIND CHILL INDEX
HX  - HEAT INDEX




USA.gov is the U.S. government's official web portal to all federal, state and local government web resources and services.